Location: Tafessasset
(32.5899°N, 5.4824°W)
Time: 10:08:43
(UTC+00:00)

BREEZE-M DEB (TANK) - Pass Details

Date: 18 February 2020
Orbit: 583 x 17136 km, 49.4° (Epoch: 28 March)

Event Time Altitude Azimuth Distance (km) Brightness Sun altitude
Exits shadow 06:22:00 10° 256° (WSW) 1,901 5.0 -9.2°
Reaches altitude 10° 06:22:00 10° 256° (WSW) 1,899 5.0 -9.2°
Maximum altitude 06:25:22 40° 330° (NNW) 936 3.7 -8.5°
Drops below altitude 10° 06:30:22 10° 42° (NE) 2,836 6.9 -7.5°
Sets 06:34:31 0° 49° (NE) 4,786 8.2 -6.6°
